User: anonymous
Location: Unspecified
(0.0000°N, 0.0000°E)
Time: 06:25:05
(UTC+02:00)
Language:

Gurwin Techsat 1B - Orbit

View from above orbital plane
View from above orbital plane
View from above satellite
View from above satellite

Ground track
Ground track

The orbit data is extracted from the following two-line orbital elements,

1 25397U 98043D   14244.14845034  .00000045  00000-0  38389-4 0  4285
2 25397 098.4765 199.3320 0002507 095.8216 334.8421 14.23457331838679
Epoch (UTC): 01 September 2014 03:33:46
Eccentricity: 0.0002507
inclination: 98.4765°
perigee height: 812 km
apogee height: 815 km
right ascension of ascending node: 199.3320°
argument of perigee: 95.8216°
revolutions per day: 14.23457331
mean anomaly at epoch: 334.8421°
orbit number at epoch: 83867

The dashed part of the orbit path shows where the satellite is in the earth's shadow,  

DLR